contact:dominique.lefevre@mio.osupytheas.fr, maurice.libes@osupytheas.fr, didier.mallarino@osupytheas.fr
Project:EMSO http://www.emso-fr.org/EMSO-France
Depth: 2436.0 m
Title:EMSO Ligure Ouest : Data MII capteur MICROCAT
DateTime_Computer,Latitude,Longitude,Temperature,Conductivity,Pressure,DateTime_Instrument
DateTime_Computer,Latitude,Longitude,degC,S m-1,dbar,DateTime_Instrument
2019-12-17T00:00:40Z,42.805,6.029,13.2974,4.59976,2470.007,2019-12-17T02:01:10Z
2019-12-17T00:03:43Z,42.805,6.029,13.2975,4.59976,2470.017,2019-12-17T02:04:13Z
2019-12-17T00:06:46Z,42.805,6.029,13.2973,4.59973,2470.007,2019-12-17T02:07:17Z
2019-12-17T00:09:50Z,42.805,6.029,13.2974,4.59973,2469.993,2019-12-17T02:10:20Z
2019-12-17T00:12:53Z,42.805,6.029,13.2990,4.59991,2470.017,2019-12-17T02:13:23Z
2019-12-17T00:15:56Z,42.805,6.029,13.2975,4.59981,2470.007,2019-12-17T02:16:26Z
2019-12-17T00:18:59Z,42.805,6.029,13.2979,4.59995,2469.96,2019-12-17T02:19:29Z
2019-12-17T00:22:02Z,42.805,6.029,13.3001,4.60006,2470.017,2019-12-17T02:22:33Z
2019-12-17T00:25:06Z,42.805,6.029,13.2991,4.60029,2469.993,2019-12-17T02:25:36Z
2019-12-17T00:28:09Z,42.805,6.029,13.3004,4.60029,2469.993,2019-12-17T02:28:39Z
2019-12-17T00:31:12Z,42.805,6.029,13.3007,4.60002,2470.03,2019-12-17T02:31:42Z
2019-12-17T00:34:15Z,42.805,6.029,13.3000,4.60008,2470.007,2019-12-17T02:34:46Z
2019-12-17T00:37:19Z,42.805,6.029,13.2994,4.60029,2470.007,2019-12-17T02:37:49Z
2019-12-17T00:40:22Z,42.805,6.029,13.3010,4.60028,2469.956,2019-12-17T02:40:52Z
2019-12-17T00:43:25Z,42.805,6.029,13.3001,4.60056,2469.984,2019-12-17T02:43:55Z
2019-12-17T00:46:28Z,42.805,6.029,13.3005,4.60042,2469.97,2019-12-17T02:46:58Z
2019-12-17T00:49:31Z,42.805,6.029,13.2999,4.60049,2469.97,2019-12-17T02:50:01Z
2019-12-17T00:52:34Z,42.805,6.029,13.2987,4.60036,2469.984,2019-12-17T02:53:05Z
2019-12-17T00:55:38Z,42.805,6.029,13.2990,4.60024,2469.96,2019-12-17T02:56:08Z
2019-12-17T00:58:41Z,42.805,6.029,13.2990,4.60037,2469.947,2019-12-17T02:59:11Z
2019-12-17T01:01:44Z,42.805,6.029,13.2987,4.60000,2469.96,2019-12-17T03:02:14Z
2019-12-17T01:04:47Z,42.805,6.029,13.2983,4.60024,2469.97,2019-12-17T03:05:18Z
2019-12-17T01:07:51Z,42.805,6.029,13.3009,4.60033,2469.96,2019-12-17T03:08:21Z
2019-12-17T01:10:54Z,42.805,6.029,13.2998,4.60021,2469.96,2019-12-17T03:11:24Z
2019-12-17T01:13:57Z,42.805,6.029,13.2999,4.60003,2469.984,2019-12-17T03:14:27Z
2019-12-17T01:17:00Z,42.805,6.029,13.2980,4.59999,2469.984,2019-12-17T03:17:30Z
2019-12-17T01:20:03Z,42.805,6.029,13.2984,4.59999,2470.007,2019-12-17T03:20:34Z
2019-12-17T01:23:07Z,42.805,6.029,13.2978,4.59991,2469.97,2019-12-17T03:23:37Z
2019-12-17T01:26:10Z,42.805,6.029,13.2977,4.59994,2469.97,2019-12-17T03:26:40Z
2019-12-17T01:29:13Z,42.805,6.029,13.2989,4.59996,2469.947,2019-12-17T03:29:43Z
2019-12-17T01:32:16Z,42.805,6.029,13.2988,4.60014,2469.984,2019-12-17T03:32:46Z
2019-12-17T01:35:19Z,42.805,6.029,13.2982,4.60003,2469.993,2019-12-17T03:35:50Z
2019-12-17T01:38:23Z,42.805,6.029,13.2993,4.60012,2469.97,2019-12-17T03:38:53Z
2019-12-17T01:41:26Z,42.805,6.029,13.2988,4.60009,2469.96,2019-12-17T03:41:56Z
2019-12-17T01:44:29Z,42.805,6.029,13.2992,4.60009,2469.96,2019-12-17T03:44:59Z
2019-12-17T01:47:32Z,42.805,6.029,13.2987,4.59987,2469.947,2019-12-17T03:48:02Z
2019-12-17T01:50:35Z,42.805,6.029,13.2986,4.59996,2469.97,2019-12-17T03:51:06Z
2019-12-17T01:53:39Z,42.805,6.029,13.2978,4.60009,2469.96,2019-12-17T03:54:09Z
2019-12-17T01:56:42Z,42.805,6.029,13.2980,4.59996,2469.984,2019-12-17T03:57:12Z
2019-12-17T01:59:45Z,42.805,6.029,13.2982,4.60011,2469.947,2019-12-17T04:00:15Z
2019-12-17T02:02:48Z,42.805,6.029,13.2980,4.59983,2469.984,2019-12-17T04:03:18Z
2019-12-17T02:05:51Z,42.805,6.029,13.2976,4.59986,2469.984,2019-12-17T04:06:21Z
2019-12-17T02:08:54Z,42.805,6.029,13.2979,4.59988,2469.947,2019-12-17T04:09:25Z
2019-12-17T02:11:58Z,42.805,6.029,13.2977,4.59994,2469.947,2019-12-17T04:12:28Z
2019-12-17T02:15:01Z,42.805,6.029,13.2982,4.59988,2469.97,2019-12-17T04:15:31Z
2019-12-17T02:18:04Z,42.805,6.029,13.2982,4.59996,2469.947,2019-12-17T04:18:34Z
2019-12-17T02:21:07Z,42.805,6.029,13.2983,4.59995,2469.947,2019-12-17T04:21:37Z
2019-12-17T02:24:10Z,42.805,6.029,13.2978,4.59992,2469.923,2019-12-17T04:24:41Z
2019-12-17T02:27:14Z,42.805,6.029,13.2975,4.59979,2469.97,2019-12-17T04:27:44Z
2019-12-17T02:30:17Z,42.805,6.029,13.2976,4.59983,2469.97,2019-12-17T04:30:47Z
2019-12-17T02:33:20Z,42.805,6.029,13.2975,4.59986,2469.937,2019-12-17T04:33:50Z
2019-12-17T02:36:23Z,42.805,6.029,13.2979,4.59991,2469.96,2019-12-17T04:36:53Z
2019-12-17T02:39:26Z,42.805,6.029,13.2979,4.59982,2469.947,2019-12-17T04:39:57Z
2019-12-17T02:42:30Z,42.805,6.029,13.2983,4.60004,2469.923,2019-12-17T04:43:00Z
2019-12-17T02:45:33Z,42.805,6.029,13.2976,4.59987,2469.97,2019-12-17T04:46:03Z
2019-12-17T02:48:36Z,42.805,6.029,13.2979,4.59993,2469.96,2019-12-17T04:49:06Z
2019-12-17T02:51:39Z,42.805,6.029,13.2979,4.59986,2469.909,2019-12-17T04:52:09Z
2019-12-17T02:54:42Z,42.805,6.029,13.2976,4.59983,2469.947,2019-12-17T04:55:13Z
2019-12-17T02:57:46Z,42.805,6.029,13.2979,4.59988,2469.923,2019-12-17T04:58:16Z
2019-12-17T03:00:49Z,42.805,6.029,13.2979,4.59994,2469.97,2019-12-17T05:01:19Z
2019-12-17T03:03:52Z,42.805,6.029,13.2979,4.59981,2469.96,2019-12-17T05:04:22Z
2019-12-17T03:06:55Z,42.805,6.029,13.2981,4.59985,2469.923,2019-12-17T05:07:25Z
2019-12-17T03:09:58Z,42.805,6.029,13.2981,4.59983,2469.923,2019-12-17T05:10:29Z
2019-12-17T03:13:02Z,42.805,6.029,13.2977,4.59986,2469.937,2019-12-17T05:13:32Z
2019-12-17T03:16:05Z,42.805,6.029,13.2981,4.59987,2469.96,2019-12-17T05:16:35Z
2019-12-17T03:19:08Z,42.805,6.029,13.2974,4.59996,2469.923,2019-12-17T05:19:38Z
2019-12-17T03:22:11Z,42.805,6.029,13.2984,4.59999,2469.89,2019-12-17T05:22:41Z
2019-12-17T03:25:14Z,42.805,6.029,13.2976,4.59987,2469.9,2019-12-17T05:25:45Z
2019-12-17T03:28:18Z,42.805,6.029,13.2987,4.60005,2469.923,2019-12-17T05:28:48Z
2019-12-17T03:31:21Z,42.805,6.029,13.2982,4.60014,2469.923,2019-12-17T05:31:51Z
2019-12-17T03:34:24Z,42.805,6.029,13.2986,4.60008,2469.937,2019-12-17T05:34:54Z
2019-12-17T03:37:27Z,42.805,6.029,13.2976,4.60009,2469.923,2019-12-17T05:37:57Z
2019-12-17T03:40:30Z,42.805,6.029,13.2978,4.59987,2469.937,2019-12-17T05:41:01Z
2019-12-17T03:43:33Z,42.805,6.029,13.2982,4.59992,2469.923,2019-12-17T05:44:04Z
2019-12-17T03:46:37Z,42.805,6.029,13.2979,4.59984,2469.947,2019-12-17T05:47:07Z
2019-12-17T03:49:40Z,42.805,6.029,13.2975,4.59984,2469.923,2019-12-17T05:50:10Z
2019-12-17T03:52:43Z,42.805,6.029,13.2976,4.59986,2469.9,2019-12-17T05:53:13Z
2019-12-17T03:55:46Z,42.805,6.029,13.2980,4.60010,2469.923,2019-12-17T05:56:16Z
2019-12-17T03:58:49Z,42.805,6.029,13.2991,4.60006,2469.914,2019-12-17T05:59:20Z
2019-12-17T04:01:53Z,42.805,6.029,13.2981,4.59989,2469.923,2019-12-17T06:02:23Z
2019-12-17T04:04:56Z,42.805,6.029,13.2987,4.60008,2469.937,2019-12-17T06:05:26Z
2019-12-17T04:07:59Z,42.805,6.029,13.2985,4.60001,2469.937,2019-12-17T06:08:29Z
2019-12-17T04:11:02Z,42.805,6.029,13.2979,4.59993,2469.923,2019-12-17T06:11:32Z
2019-12-17T04:14:05Z,42.805,6.029,13.2977,4.59993,2469.9,2019-12-17T06:14:36Z
2019-12-17T04:17:09Z,42.805,6.029,13.2980,4.60007,2469.914,2019-12-17T06:17:39Z
2019-12-17T04:20:12Z,42.805,6.029,13.2977,4.60010,2469.9,2019-12-17T06:20:42Z
2019-12-17T04:23:15Z,42.805,6.029,13.2983,4.59992,2469.914,2019-12-17T06:23:45Z
2019-12-17T04:26:18Z,42.805,6.029,13.2981,4.59988,2469.9,2019-12-17T06:26:48Z
2019-12-17T04:29:21Z,42.805,6.029,13.2982,4.59986,2469.9,2019-12-17T06:29:51Z
2019-12-17T04:32:24Z,42.805,6.029,13.2981,4.59995,2469.923,2019-12-17T06:32:55Z
2019-12-17T04:35:28Z,42.805,6.029,13.2979,4.59980,2469.914,2019-12-17T06:35:58Z
2019-12-17T04:38:31Z,42.805,6.029,13.2985,4.59992,2469.9,2019-12-17T06:39:01Z
2019-12-17T04:41:34Z,42.805,6.029,13.2979,4.59996,2469.914,2019-12-17T06:42:04Z
2019-12-17T04:44:37Z,42.805,6.029,13.2979,4.59989,2469.876,2019-12-17T06:45:07Z
2019-12-17T04:47:40Z,42.805,6.029,13.2976,4.59997,2469.923,2019-12-17T06:48:11Z
2019-12-17T04:50:44Z,42.805,6.029,13.2985,4.60003,2469.876,2019-12-17T06:51:14Z
2019-12-17T04:53:47Z,42.805,6.029,13.2979,4.59983,2469.876,2019-12-17T06:54:17Z
2019-12-17T04:56:50Z,42.805,6.029,13.2978,4.59984,2469.914,2019-12-17T06:57:20Z
2019-12-17T04:59:54Z,42.805,6.029,13.2979,4.59980,2469.9,2019-12-17T07:00:24Z
2019-12-17T05:02:57Z,42.805,6.029,13.2975,4.60004,2469.937,2019-12-17T07:03:27Z
2019-12-17T05:06:00Z,42.805,6.029,13.2974,4.59981,2469.876,2019-12-17T07:06:30Z
2019-12-17T05:09:03Z,42.805,6.029,13.2976,4.59990,2469.9,2019-12-17T07:09:33Z
2019-12-17T05:12:06Z,42.805,6.029,13.2983,4.59995,2469.876,2019-12-17T07:12:37Z
2019-12-17T05:15:10Z,42.805,6.029,13.2977,4.59992,2469.914,2019-12-17T07:15:40Z
2019-12-17T05:18:13Z,42.805,6.029,13.2977,4.59987,2469.914,2019-12-17T07:18:43Z
2019-12-17T05:21:16Z,42.805,6.029,13.2975,4.59978,2469.914,2019-12-17T07:21:46Z
2019-12-17T05:24:19Z,42.805,6.029,13.2977,4.59986,2469.923,2019-12-17T07:24:50Z
2019-12-17T05:27:23Z,42.805,6.029,13.2985,4.60006,2469.9,2019-12-17T07:27:53Z
2019-12-17T05:30:26Z,42.805,6.029,13.2978,4.59987,2469.937,2019-12-17T07:30:56Z
2019-12-17T05:33:29Z,42.805,6.029,13.2985,4.60003,2469.937,2019-12-17T07:33:59Z
2019-12-17T05:36:32Z,42.805,6.029,13.2983,4.59999,2469.947,2019-12-17T07:37:03Z
2019-12-17T05:39:36Z,42.805,6.029,13.2979,4.59981,2469.923,2019-12-17T07:40:06Z
2019-12-17T05:42:39Z,42.805,6.029,13.2974,4.59985,2469.923,2019-12-17T07:43:09Z
2019-12-17T05:45:42Z,42.805,6.029,13.2975,4.59979,2469.876,2019-12-17T07:46:12Z
2019-12-17T05:48:45Z,42.805,6.029,13.2973,4.59984,2469.923,2019-12-17T07:49:15Z
2019-12-17T05:51:49Z,42.805,6.029,13.2978,4.59981,2469.937,2019-12-17T07:52:19Z
2019-12-17T05:54:52Z,42.805,6.029,13.2980,4.59989,2469.937,2019-12-17T07:55:22Z
2019-12-17T05:57:55Z,42.805,6.029,13.2980,4.60006,2469.923,2019-12-17T07:58:25Z
2019-12-17T06:00:58Z,42.805,6.029,13.2975,4.59986,2469.923,2019-12-17T08:01:28Z
2019-12-17T06:04:01Z,42.805,6.029,13.2976,4.59983,2469.9,2019-12-17T08:04:31Z
2019-12-17T06:07:04Z,42.805,6.029,13.2974,4.59982,2469.923,2019-12-17T08:07:35Z
2019-12-17T06:10:08Z,42.805,6.029,13.2984,4.59991,2469.933,2019-12-17T08:10:38Z
2019-12-17T06:13:11Z,42.805,6.029,13.2980,4.60006,2469.923,2019-12-17T08:13:41Z
2019-12-17T06:16:14Z,42.805,6.029,13.2976,4.60001,2469.96,2019-12-17T08:16:44Z
2019-12-17T06:19:17Z,42.805,6.029,13.2983,4.59993,2469.937,2019-12-17T08:19:48Z
2019-12-17T06:22:21Z,42.805,6.029,13.2990,4.59999,2469.96,2019-12-17T08:22:51Z
2019-12-17T06:25:24Z,42.805,6.029,13.2980,4.59980,2469.937,2019-12-17T08:25:54Z
2019-12-17T06:28:27Z,42.805,6.029,13.2978,4.59995,2469.96,2019-12-17T08:28:57Z
2019-12-17T06:31:30Z,42.805,6.029,13.2985,4.60001,2469.923,2019-12-17T08:32:00Z
2019-12-17T06:34:33Z,42.805,6.029,13.2977,4.59990,2469.923,2019-12-17T08:35:03Z
2019-12-17T06:37:36Z,42.805,6.029,13.2979,4.59997,2469.937,2019-12-17T08:38:07Z
2019-12-17T06:40:40Z,42.805,6.029,13.2975,4.59987,2469.96,2019-12-17T08:41:10Z
2019-12-17T06:43:43Z,42.805,6.029,13.2979,4.59999,2469.947,2019-12-17T08:44:13Z
2019-12-17T06:46:46Z,42.805,6.029,13.2983,4.60002,2469.947,2019-12-17T08:47:16Z
2019-12-17T06:49:49Z,42.805,6.029,13.2986,4.59996,2469.937,2019-12-17T08:50:19Z
2019-12-17T06:52:52Z,42.805,6.029,13.2973,4.59982,2469.947,2019-12-17T08:53:23Z
2019-12-17T06:55:55Z,42.805,6.029,13.2972,4.59980,2469.923,2019-12-17T08:56:26Z
2019-12-17T06:58:59Z,42.805,6.029,13.2977,4.59983,2469.97,2019-12-17T08:59:29Z
2019-12-17T07:02:02Z,42.805,6.029,13.2981,4.59995,2469.993,2019-12-17T09:02:32Z
2019-12-17T07:05:05Z,42.805,6.029,13.2979,4.59987,2469.984,2019-12-17T09:05:35Z
2019-12-17T07:08:08Z,42.805,6.029,13.2983,4.59997,2469.993,2019-12-17T09:08:38Z
2019-12-17T07:11:11Z,42.805,6.029,13.2982,4.59989,2469.993,2019-12-17T09:11:42Z
2019-12-17T07:14:15Z,42.805,6.029,13.2979,4.59991,2469.993,2019-12-17T09:14:45Z
2019-12-17T07:17:18Z,42.805,6.029,13.2977,4.59994,2470.03,2019-12-17T09:17:48Z
2019-12-17T07:20:21Z,42.805,6.029,13.2976,4.59983,2470.007,2019-12-17T09:20:51Z
2019-12-17T07:23:24Z,42.805,6.029,13.2974,4.59985,2469.993,2019-12-17T09:23:54Z
2019-12-17T07:26:27Z,42.805,6.029,13.2982,4.59992,2470.007,2019-12-17T09:26:58Z
2019-12-17T07:29:31Z,42.805,6.029,13.2982,4.59985,2469.993,2019-12-17T09:30:01Z
2019-12-17T07:32:34Z,42.805,6.029,13.2978,4.59993,2470.017,2019-12-17T09:33:04Z
2019-12-17T07:35:37Z,42.805,6.029,13.2979,4.59983,2470.03,2019-12-17T09:36:07Z
2019-12-17T07:38:40Z,42.805,6.029,13.2975,4.59996,2470.007,2019-12-17T09:39:11Z
2019-12-17T07:41:44Z,42.805,6.029,13.2986,4.59991,2470.03,2019-12-17T09:42:14Z
2019-12-17T07:44:47Z,42.805,6.029,13.2977,4.59988,2470.03,2019-12-17T09:45:17Z
2019-12-17T07:47:50Z,42.805,6.029,13.2983,4.60001,2470.077,2019-12-17T09:48:20Z
2019-12-17T07:50:53Z,42.805,6.029,13.2976,4.59981,2470.053,2019-12-17T09:51:23Z
2019-12-17T07:53:56Z,42.805,6.029,13.2982,4.59994,2470.017,2019-12-17T09:54:26Z
2019-12-17T07:56:59Z,42.805,6.029,13.2976,4.59982,2470.03,2019-12-17T09:57:30Z
2019-12-17T08:00:03Z,42.805,6.029,13.2976,4.59986,2470.017,2019-12-17T10:00:33Z
2019-12-17T08:03:06Z,42.805,6.029,13.2976,4.59981,2470.063,2019-12-17T10:03:36Z
2019-12-17T08:06:09Z,42.805,6.029,13.2976,4.59984,2470.1,2019-12-17T10:06:39Z
2019-12-17T08:09:12Z,42.805,6.029,13.2977,4.59996,2470.04,2019-12-17T10:09:42Z
2019-12-17T08:12:15Z,42.805,6.029,13.2979,4.59998,2470.077,2019-12-17T10:12:46Z
2019-12-17T08:15:19Z,42.805,6.029,13.2982,4.60010,2470.063,2019-12-17T10:15:49Z
2019-12-17T08:18:22Z,42.805,6.029,13.2979,4.59982,2470.1,2019-12-17T10:18:52Z
2019-12-17T08:21:25Z,42.805,6.029,13.2979,4.59997,2470.077,2019-12-17T10:21:55Z
2019-12-17T08:24:28Z,42.805,6.029,13.2985,4.59999,2470.087,2019-12-17T10:24:58Z
2019-12-17T08:27:31Z,42.805,6.029,13.2979,4.59997,2470.087,2019-12-17T10:28:02Z
2019-12-17T08:30:35Z,42.805,6.029,13.2976,4.59981,2470.087,2019-12-17T10:31:05Z
2019-12-17T08:33:38Z,42.805,6.029,13.2976,4.59995,2470.1,2019-12-17T10:34:08Z
2019-12-17T08:36:41Z,42.805,6.029,13.2974,4.59980,2470.11,2019-12-17T10:37:11Z
2019-12-17T08:39:44Z,42.805,6.029,13.2975,4.59981,2470.11,2019-12-17T10:40:14Z
2019-12-17T08:42:47Z,42.805,6.029,13.2975,4.59978,2470.133,2019-12-17T10:43:17Z
2019-12-17T08:45:51Z,42.805,6.029,13.2975,4.59980,2470.087,2019-12-17T10:46:21Z
2019-12-17T08:48:54Z,42.805,6.029,13.2974,4.59981,2470.11,2019-12-17T10:49:24Z
2019-12-17T08:51:57Z,42.805,6.029,13.2979,4.59979,2470.11,2019-12-17T10:52:27Z
2019-12-17T08:55:00Z,42.805,6.029,13.2973,4.59983,2470.11,2019-12-17T10:55:30Z
2019-12-17T08:58:03Z,42.805,6.029,13.2974,4.59979,2470.18,2019-12-17T10:58:34Z
2019-12-17T09:01:06Z,42.805,6.029,13.2972,4.59978,2470.11,2019-12-17T11:01:37Z
2019-12-17T09:04:10Z,42.805,6.029,13.2972,4.59982,2470.133,2019-12-17T11:04:40Z
2019-12-17T09:07:13Z,42.805,6.029,13.2971,4.59980,2470.124,2019-12-17T11:07:43Z
2019-12-17T09:10:16Z,42.805,6.029,13.2973,4.59976,2470.124,2019-12-17T11:10:46Z
2019-12-17T09:13:19Z,42.805,6.029,13.2975,4.59979,2470.133,2019-12-17T11:13:50Z
2019-12-17T09:16:23Z,42.805,6.029,13.2972,4.59977,2470.133,2019-12-17T11:16:53Z
2019-12-17T09:19:26Z,42.805,6.029,13.2975,4.59978,2470.171,2019-12-17T11:19:57Z
2019-12-17T09:22:29Z,42.805,6.029,13.2975,4.59978,2470.147,2019-12-17T11:23:00Z
2019-12-17T09:25:33Z,42.805,6.029,13.2975,4.59978,2470.147,2019-12-17T11:26:03Z
2019-12-17T09:28:36Z,42.805,6.029,13.2974,4.59978,2470.133,2019-12-17T11:29:06Z
2019-12-17T09:31:39Z,42.805,6.029,13.2971,4.59981,2470.171,2019-12-17T11:32:09Z
2019-12-17T09:34:42Z,42.805,6.029,13.2976,4.59981,2470.194,2019-12-17T11:35:12Z
2019-12-17T09:37:45Z,42.805,6.029,13.2975,4.59978,2470.171,2019-12-17T11:38:16Z
2019-12-17T09:40:49Z,42.805,6.029,13.2968,4.59976,2470.156,2019-12-17T11:41:19Z
2019-12-17T09:43:52Z,42.805,6.029,13.2971,4.59973,2470.133,2019-12-17T11:44:22Z
2019-12-17T09:46:55Z,42.805,6.029,13.2976,4.59979,2470.171,2019-12-17T11:47:25Z
2019-12-17T09:49:58Z,42.805,6.029,13.2971,4.59976,2470.171,2019-12-17T11:50:28Z
2019-12-17T09:53:01Z,42.805,6.029,13.2977,4.59978,2470.166,2019-12-17T11:53:32Z
2019-12-17T09:56:05Z,42.805,6.029,13.2970,4.59977,2470.171,2019-12-17T11:56:35Z
2019-12-17T09:59:08Z,42.805,6.029,13.2968,4.59976,2470.194,2019-12-17T11:59:38Z
2019-12-17T10:02:11Z,42.805,6.029,13.2971,4.59978,2470.171,2019-12-17T12:02:41Z
2019-12-17T10:05:14Z,42.805,6.029,13.2972,4.59979,2470.156,2019-12-17T12:05:45Z
2019-12-17T10:08:17Z,42.805,6.029,13.2971,4.59979,2470.171,2019-12-17T12:08:48Z
2019-12-17T10:11:21Z,42.805,6.029,13.2975,4.59988,2470.194,2019-12-17T12:11:51Z
2019-12-17T10:14:24Z,42.805,6.029,13.2975,4.59981,2470.171,2019-12-17T12:14:55Z
2019-12-17T10:17:28Z,42.805,6.029,13.2973,4.59980,2470.156,2019-12-17T12:17:58Z
2019-12-17T10:20:31Z,42.805,6.029,13.2974,4.59976,2470.194,2019-12-17T12:21:01Z
2019-12-17T10:23:34Z,42.805,6.029,13.2976,4.59989,2470.156,2019-12-17T12:24:04Z
2019-12-17T10:26:37Z,42.805,6.029,13.2975,4.59978,2470.194,2019-12-17T12:27:07Z
2019-12-17T10:29:40Z,42.805,6.029,13.2979,4.59981,2470.147,2019-12-17T12:30:11Z
2019-12-17T10:32:44Z,42.805,6.029,13.2974,4.59980,2470.156,2019-12-17T12:33:14Z
2019-12-17T10:35:47Z,42.805,6.029,13.2971,4.59976,2470.18,2019-12-17T12:36:17Z
2019-12-17T10:38:50Z,42.805,6.029,13.2976,4.59978,2470.194,2019-12-17T12:39:20Z
2019-12-17T10:41:53Z,42.805,6.029,13.2973,4.59976,2470.133,2019-12-17T12:42:23Z
2019-12-17T10:44:56Z,42.805,6.029,13.2974,4.59986,2470.156,2019-12-17T12:45:27Z
2019-12-17T10:48:00Z,42.805,6.029,13.2974,4.59978,2470.156,2019-12-17T12:48:30Z
2019-12-17T10:51:03Z,42.805,6.029,13.2971,4.59977,2470.171,2019-12-17T12:51:33Z
2019-12-17T10:54:06Z,42.805,6.029,13.2971,4.59976,2470.171,2019-12-17T12:54:36Z
2019-12-17T10:57:09Z,42.805,6.029,13.2971,4.59981,2470.156,2019-12-17T12:57:39Z
2019-12-17T11:00:12Z,42.805,6.029,13.2975,4.59976,2470.133,2019-12-17T13:00:43Z
2019-12-17T11:03:15Z,42.805,6.029,13.2973,4.59976,2470.133,2019-12-17T13:03:46Z
2019-12-17T11:06:19Z,42.805,6.029,13.2974,4.59978,2470.18,2019-12-17T13:06:49Z
2019-12-17T11:09:22Z,42.805,6.029,13.2974,4.59978,2470.133,2019-12-17T13:09:52Z
2019-12-17T11:12:25Z,42.805,6.029,13.2974,4.59988,2470.147,2019-12-17T13:12:55Z
2019-12-17T11:15:28Z,42.805,6.029,13.2979,4.59982,2470.133,2019-12-17T13:15:59Z
2019-12-17T11:18:31Z,42.805,6.029,13.2975,4.59979,2470.18,2019-12-17T13:19:02Z
2019-12-17T11:21:35Z,42.805,6.029,13.2972,4.59978,2470.156,2019-12-17T13:22:05Z
2019-12-17T11:24:38Z,42.805,6.029,13.2977,4.59982,2470.133,2019-12-17T13:25:08Z
2019-12-17T11:27:41Z,42.805,6.029,13.2979,4.59991,2470.133,2019-12-17T13:28:11Z
2019-12-17T11:30:44Z,42.805,6.029,13.2971,4.59981,2470.156,2019-12-17T13:31:14Z
2019-12-17T11:33:47Z,42.805,6.029,13.2976,4.59975,2470.143,2019-12-17T13:34:18Z
2019-12-17T11:36:51Z,42.805,6.029,13.2974,4.59982,2470.133,2019-12-17T13:37:21Z
2019-12-17T11:39:54Z,42.805,6.029,13.2976,4.59993,2470.156,2019-12-17T13:40:24Z
2019-12-17T11:42:57Z,42.805,6.029,13.2978,4.59986,2470.156,2019-12-17T13:43:27Z
2019-12-17T11:46:00Z,42.805,6.029,13.2976,4.59977,2470.133,2019-12-17T13:46:31Z
2019-12-17T11:49:03Z,42.805,6.029,13.2970,4.59988,2470.171,2019-12-17T13:49:34Z
2019-12-17T11:52:07Z,42.805,6.029,13.2976,4.59996,2470.133,2019-12-17T13:52:37Z
2019-12-17T11:55:10Z,42.805,6.029,13.2971,4.59979,2470.156,2019-12-17T13:55:40Z
2019-12-17T11:58:13Z,42.805,6.029,13.2976,4.59978,2470.147,2019-12-17T13:58:43Z
2019-12-17T12:01:16Z,42.805,6.029,13.2970,4.59978,2470.156,2019-12-17T14:01:46Z
2019-12-17T12:04:19Z,42.805,6.029,13.2974,4.59979,2470.147,2019-12-17T14:04:50Z
2019-12-17T12:07:23Z,42.805,6.029,13.2976,4.59981,2470.156,2019-12-17T14:07:53Z
2019-12-17T12:10:26Z,42.805,6.029,13.2969,4.59978,2470.133,2019-12-17T14:10:56Z
2019-12-17T12:13:29Z,42.805,6.029,13.2976,4.59978,2470.156,2019-12-17T14:13:59Z
2019-12-17T12:16:32Z,42.805,6.029,13.2977,4.59978,2470.133,2019-12-17T14:17:02Z
2019-12-17T12:19:35Z,42.805,6.029,13.2971,4.59980,2470.147,2019-12-17T14:20:06Z
2019-12-17T12:22:38Z,42.805,6.029,13.2973,4.59981,2470.133,2019-12-17T14:23:09Z
2019-12-17T12:25:42Z,42.805,6.029,13.2973,4.59981,2470.133,2019-12-17T14:26:12Z
2019-12-17T12:28:45Z,42.805,6.029,13.2972,4.59976,2470.124,2019-12-17T14:29:15Z
2019-12-17T12:31:48Z,42.805,6.029,13.2974,4.59978,2470.119,2019-12-17T14:32:18Z
2019-12-17T12:34:51Z,42.805,6.029,13.2976,4.59979,2470.133,2019-12-17T14:35:22Z
2019-12-17T12:37:55Z,42.805,6.029,13.2974,4.59979,2470.124,2019-12-17T14:38:25Z
2019-12-17T12:40:58Z,42.805,6.029,13.2972,4.59979,2470.147,2019-12-17T14:41:28Z
2019-12-17T12:44:01Z,42.805,6.029,13.2974,4.59986,2470.171,2019-12-17T14:44:31Z
2019-12-17T12:47:04Z,42.805,6.029,13.2977,4.59992,2470.133,2019-12-17T14:47:34Z
2019-12-17T12:50:07Z,42.805,6.029,13.2972,4.59978,2470.133,2019-12-17T14:50:38Z
2019-12-17T12:53:11Z,42.805,6.029,13.2978,4.59981,2470.124,2019-12-17T14:53:41Z
2019-12-17T12:56:14Z,42.805,6.029,13.2973,4.59976,2470.147,2019-12-17T14:56:44Z
2019-12-17T12:59:17Z,42.805,6.029,13.2976,4.59979,2470.133,2019-12-17T14:59:47Z
2019-12-17T13:02:21Z,42.805,6.029,13.2974,4.59978,2470.124,2019-12-17T15:02:51Z
2019-12-17T13:05:24Z,42.805,6.029,13.2976,4.59983,2470.133,2019-12-17T15:05:54Z
2019-12-17T13:08:27Z,42.805,6.029,13.2978,4.59982,2470.1,2019-12-17T15:08:57Z
2019-12-17T13:11:30Z,42.805,6.029,13.2972,4.59979,2470.133,2019-12-17T15:12:00Z
2019-12-17T13:14:33Z,42.805,6.029,13.2974,4.59978,2470.124,2019-12-17T15:15:03Z
2019-12-17T13:17:36Z,42.805,6.029,13.2977,4.59978,2470.124,2019-12-17T15:18:07Z
2019-12-17T13:20:40Z,42.805,6.029,13.2976,4.59979,2470.11,2019-12-17T15:21:10Z
2019-12-17T13:23:43Z,42.805,6.029,13.2972,4.59977,2470.133,2019-12-17T15:24:13Z
2019-12-17T13:26:46Z,42.805,6.029,13.2975,4.59979,2470.11,2019-12-17T15:27:16Z
2019-12-17T13:29:49Z,42.805,6.029,13.2974,4.59981,2470.119,2019-12-17T15:30:19Z
2019-12-17T13:32:52Z,42.805,6.029,13.2974,4.59978,2470.133,2019-12-17T15:33:23Z
2019-12-17T13:35:56Z,42.805,6.029,13.2976,4.59981,2470.133,2019-12-17T15:36:26Z
2019-12-17T13:38:59Z,42.805,6.029,13.2974,4.59977,2470.11,2019-12-17T15:39:29Z
2019-12-17T13:42:02Z,42.805,6.029,13.2972,4.59978,2470.11,2019-12-17T15:42:32Z
2019-12-17T13:45:05Z,42.805,6.029,13.2974,4.59981,2470.11,2019-12-17T15:45:35Z
2019-12-17T13:48:08Z,42.805,6.029,13.2972,4.59975,2470.087,2019-12-17T15:48:39Z
2019-12-17T13:51:12Z,42.805,6.029,13.2968,4.59976,2470.11,2019-12-17T15:51:42Z
2019-12-17T13:54:15Z,42.805,6.029,13.2978,4.59978,2470.11,2019-12-17T15:54:45Z
2019-12-17T13:57:18Z,42.805,6.029,13.2972,4.59978,2470.11,2019-12-17T15:57:48Z
2019-12-17T14:00:21Z,42.805,6.029,13.2968,4.59978,2470.087,2019-12-17T16:00:51Z
2019-12-17T14:03:24Z,42.805,6.029,13.2969,4.59976,2470.087,2019-12-17T16:03:55Z
2019-12-17T14:06:28Z,42.805,6.029,13.2974,4.59981,2470.11,2019-12-17T16:06:58Z
2019-12-17T14:09:31Z,42.805,6.029,13.2976,4.59981,2470.1,2019-12-17T16:10:01Z
2019-12-17T14:12:34Z,42.805,6.029,13.2974,4.59978,2470.11,2019-12-17T16:13:04Z
2019-12-17T14:15:37Z,42.805,6.029,13.2974,4.59976,2470.1,2019-12-17T16:16:07Z
2019-12-17T14:18:40Z,42.805,6.029,13.2973,4.59978,2470.077,2019-12-17T16:19:11Z
2019-12-17T14:21:44Z,42.805,6.029,13.2970,4.59981,2470.1,2019-12-17T16:22:14Z
2019-12-17T14:24:47Z,42.805,6.029,13.2974,4.59977,2470.063,2019-12-17T16:25:17Z
2019-12-17T14:27:50Z,42.805,6.029,13.2970,4.59979,2470.063,2019-12-17T16:28:20Z
2019-12-17T14:30:53Z,42.805,6.029,13.2968,4.59976,2470.077,2019-12-17T16:31:24Z
2019-12-17T14:33:57Z,42.805,6.029,13.2971,4.59976,2470.124,2019-12-17T16:34:27Z
2019-12-17T14:37:00Z,42.805,6.029,13.2973,4.59980,2470.087,2019-12-17T16:37:30Z
2019-12-17T14:40:03Z,42.805,6.029,13.2973,4.59979,2470.1,2019-12-17T16:40:33Z
2019-12-17T14:43:06Z,42.805,6.029,13.2968,4.59976,2470.087,2019-12-17T16:43:36Z
2019-12-17T14:46:09Z,42.805,6.029,13.2974,4.59980,2470.087,2019-12-17T16:46:40Z
2019-12-17T14:49:12Z,42.805,6.029,13.2975,4.59975,2470.087,2019-12-17T16:49:43Z
2019-12-17T14:52:16Z,42.805,6.029,13.2972,4.59977,2470.053,2019-12-17T16:52:46Z
2019-12-17T14:55:19Z,42.805,6.029,13.2972,4.59979,2470.073,2019-12-17T16:55:49Z
2019-12-17T14:58:22Z,42.805,6.029,13.2974,4.59983,2470.077,2019-12-17T16:58:52Z
2019-12-17T15:01:25Z,42.805,6.029,13.2969,4.59979,2470.063,2019-12-17T17:01:55Z